Other Surface Observations
Issued by NWS Tucson, AZ

Home | Current Version | Previous Version | Text Only | Print | Product List | Glossary On
Versions: 1 2 3 4 5 6 7 8 9 10 11 12 13 14 15 16 17 18 19 20 21 22 23 24 25 26 27 28 29 30 31 32 33 34 35 36 37 38 39 40 41 42 43 44 45 46 47 48 49 50
000
SXUS55 KTWC 290216
OSOTWC

WEATHER ROUNDUP FOR SOUTHEAST ARIZONA
NATIONAL WEATHER SERVICE TUCSON AZ
715 PM MST TUE JUL 28 2015

AZZ504>506-514-290315-
LOCATION       SKY/WX    TMP DP  RH WIND       PRES   REMARKS
TUCSON         CLOUDY    74  68  81 S23       30.04R
DAVIS-MONTHAN  TSTM      73  68  83 SE12G23   30.02R
CHILDRENS PARK N/A       84  63  50 SW8               PIMA CO DEQ
ALVERNON/22ND  N/A      N/A N/A N/A N/A               PIMA CO DEQ
CHERRY/GLENN   N/A      N/A N/A N/A N/A               PIMA CO DEQ
TANGERINE      N/A       90 N/A N/A SE3               PIMA CO DEQ
CONTL RANCH    N/A       91  61  37 SW4               PIMA CO DEQ
GRANT/1ST      N/A       80  68  66 S9                PIMA CO DEQ
CRAYCROFT/22ND N/A      N/A N/A N/A N/A               PIMA CO DEQ
GOLFLINKS/KOLB N/A      N/A N/A N/A N/A               PIMA CO DEQ
AJO/12TH       N/A       73  67  81 SE13              PIMA CO DEQ
SAGUARO EAST   N/A      N/A N/A N/A N/A               PIMA CO DEQ
FAIRGROUNDS    N/A       79 N/A N/A SW11              PIMA CO DEQ
SAGUARO        N/A       83  58  43 W6G19             *SABINO CYN
SAN CARLOS     N/A       89  58  35 NE9G17            *SAN CARLOS
GREEN VALLEY   N/A       71  69  92 W8                PIMA CO DEQ
HORSE CAMP CYN N/A       79  60  53 E3G17             *ARAVAIPA CYN
RINCON MTNS    N/A       56  55  96 SW3G10            *NR MANNING CAMP
$$

AZZ509>511-290315-
LOCATION       SKY/WX    TMP DP  RH WIND       PRES   REMARKS
SAFFORD        CLOUDY    93  52  24 NW10      29.92R
STRAY HORSE    N/A       67  46  46 NE6G14            *
TRAIL CABIN    N/A       77  47  35 CALM              *N OF GRANVILLE
BLACK HILLS    N/A       91  52  27 N7G20             *N OF FT THOMAS
DRY LAKE       N/A       66  54  65 N3                *NATANES MTNS
NOON CREEK     N/A       82  53  37 SW5               *PINALENO MTNS
COLUMBINE      N/A       56  55  97 CALM              *PINALENO MTNS
GUTHRIE        N/A       80  47  31 W9G18             *SW OF GUTHRIE
$$

AZZ502-503-513-290315-
LOCATION       SKY/WX    TMP DP  RH WIND       PRES   REMARKS
NOGALES        LGT RAIN  68  64  87 NW10G17   30.13R
SELLS          N/A       89  64  44 SE10G16           *
SASABE         N/A       67  65  93 S11G47            *ALTAR VLY
HOPKINS        N/A       60  52  75 E7G21             *SANTA RITA MTNS
CARR CYN       N/A       72  59  64 CALM              *W OF HEREFORD
$$

AZZ507-508-512-290315-
LOCATION       SKY/WX    TMP DP  RH WIND       PRES   REMARKS
SIERRA VISTA   LGT RAIN  70  61  73 W22       30.16R
DOUGLAS          N/A    N/A N/A N/A MISG      30.06R
EMPIRE MTNS    N/A       66  63  89 W11G26            *LAS CIENEGAS NCA
MULESHOE RANCH N/A       71  65  80 N3G12             *PRESERVE
HEADQUARTERS   N/A       75  56  52 CALM              *CHIRICAHUA MTNS
$$

.............................NOTES.............................
THIS IS AN AUTOMATED COLLECTIVE WITH MINIMAL QUALITY CONTROL.
PIMA CO DEQ SITES HAVE NONSTANDARD WIND SENSOR HEIGHTS.
PIMA CO DEQ SITES DO NOT REPORT WIND GUSTS.
* INDICATES WIND SENSORS LOCATED AT 20 FEET INSTEAD OF 33 FEET.
..............................KEY..............................
SKY/WX - SKY CONDITION/WEATHER
TMP    - TEMPERATURE IN FAHRENHEIT
DP     - DEWPOINT IN FAHRENHEIT
RH     - RELATIVE HUMIDITY IN PERCENT
WIND   - DIRECTION AND SPEED IN MILES PER HOUR (MPH)
VRB    - VARIABLE WIND DIRECTION
PRES   - MEAN SEA LEVEL PRESSURE IN INCHES OF MERCURY
         F - FALLING PRESSURE   R - RISING PRESSURE
         S - STEADY PRESSURE
VSB    - VISIBILITY IN MILES
HX     - HEAT INDEX IN FAHRENHEIT
WCI    - WIND CHILL INDEX IN FAHRENHEIT
N/A    - NOT AVAILABLE
AFB    - AIR FORCE BASE
         DAVIS-MONTHAN IS DAVIS-MONTHAN AIR FORCE BASE
CYN    - CANYON
MTNS   - MOUNTAINS
NCA    - NATIONAL CONSERVATION AREA
NR     - NEAR
VLY    - VALLEY
CONTL  - CONTINENTAL
PIMA CO DEQ - PIMA COUNTY DEPT OF ENVIRONMENTAL QUALITY



USA.gov is the U.S. government's official web portal to all federal, state and local government web resources and services.